Deer Park, WA

1:18 PM PDT on October 01, 2016 (GMT -0700)
Deer Park

Weather History for KDEW - June, 2013

Change the Weather History Date:

Monday, June 17, 2013

  Actual Average Record
Temperature  
Mean Temperature 65 °F 59 °F  
Max Temperature 81 °F 73 °F 89 °F (2003)
Min Temperature 48 °F 45 °F 34 °F (2001)
Degree Days  
Heating Degree Days 0 6  
Month to date heating degree days 124 132  
Since 1 June heating degree days 124 132  
Since 1 July heating degree days 6937 7346  
Cooling Degree Days 0 0  
Month to date cooling degree days 2 0  
Year to date cooling degree days 5 3  
Since 1 June cooling degree days 2 0  
Growing Degree Days 14 (Base 50)    
Moisture  
Dew Point 48 °F    
Average Humidity 58    
Maximum Humidity 86    
Minimum Humidity 30    
Precipitation  
Precipitation 0.09 in 0.06 in 0.83 in (2014)
Month to date precipitation 0.46 1.22  
Year to date precipitation 6.83 10.96  
Sea Level Pressure  
Sea Level Pressure 29.91 in    
Wind  
Wind Speed 5 mph (West)    
Max Wind Speed 16 mph    
Max Gust Speed 23 mph    
Visibility 10 miles    
Events Rain , Thunderstorm    
T = Trace of Precipitation, MM = Missing Value Source: NWS Daily Summary

Daily Weather History Graph

Daily Weather History Graph

Search for Another Location

Airport or City:

Trip Planner

Search our weather history database for the weather conditions in past years. The results will help you decide how hot, cold, wet, or windy it might be!

Date:

Astronomy

Jun. 17, 2013 Rise Set
Actual Time 4:49 AM PDT 8:51 PM PDT
Civil Twilight 4:08 AM PDT 9:33 PM PDT
Nautical Twilight 3:11 AM PDT 10:30 PM PDT
Astronomical Twilight 1:33 AM PDT 12:08 AM PDT
Moon 2:13 PM PDT (6/17) 12:53 AM PDT (6/17)
Length of Visible Light 17h 24m
Length of Day
16h 02m
First Quarter, 61% of the Moon is Illuminated
Jun 17
First Quarter
Jun 23
Full
Jun 29
Last Quarter
Jul 8
New
Jul 15
First Quarter

Hourly Weather History & Observations

Time (PDT) Temp. Dew Point Humidity Pressure Visibility Wind Dir Wind Speed Gust Speed Precip Events Conditions
12:53 AM 57.0 °F 46.9 °F 69% 29.93 in 10.0 mi NE 4.6 mph - N/A   Clear
1:53 AM 53.1 °F 46.9 °F 80% 29.93 in 10.0 mi WSW 3.5 mph - N/A   Clear
2:53 AM 48.0 °F 44.1 °F 86% 29.93 in 10.0 mi Calm Calm - N/A   Clear
3:53 AM 54.0 °F 48.0 °F 80% 29.94 in 10.0 mi Calm Calm - N/A   Scattered Clouds
4:53 AM 54.0 °F 48.0 °F 80% 29.95 in 10.0 mi North - - N/A   Partly Cloudy
5:53 AM 55.0 °F 48.9 °F 80% 29.95 in 10.0 mi NE 4.6 mph - N/A   Mostly Cloudy
6:53 AM 59.0 °F 50.0 °F 72% 29.97 in 10.0 mi ESE 3.5 mph - N/A   Mostly Cloudy
7:53 AM 63.0 °F 50.0 °F 63% 29.98 in 10.0 mi SSE 9.2 mph - N/A   Partly Cloudy
8:53 AM 66.0 °F 48.9 °F 54% 30.00 in 10.0 mi South 8.1 mph - N/A   Clear
9:53 AM 66.9 °F 48.9 °F 52% 30.00 in 10.0 mi Calm Calm - N/A   Mostly Cloudy
10:53 AM 69.1 °F 48.9 °F 49% 29.99 in 10.0 mi West 6.9 mph - N/A   Clear
11:53 AM 72.0 °F 51.1 °F 48% 29.98 in 10.0 mi Variable 4.6 mph - N/A   Clear
12:53 PM 77.0 °F 50.0 °F 39% 29.96 in 10.0 mi Variable 5.8 mph - N/A   Clear
1:53 PM 79.0 °F 48.9 °F 35% 29.94 in 10.0 mi Calm Calm - N/A   Clear
2:53 PM 77.0 °F 48.0 °F 36% 29.93 in 10.0 mi Variable 3.5 mph - N/A   Mostly Cloudy
3:53 PM 79.0 °F 48.9 °F 35% 29.90 in 10.0 mi SSW 4.6 mph - N/A   Scattered Clouds
4:53 PM 80.1 °F 50.0 °F 35% 29.88 in 10.0 mi Variable 5.8 mph - N/A   Mostly Cloudy
5:53 PM 80.1 °F 46.9 °F 31% 29.86 in 10.0 mi SW 5.8 mph - N/A   Partly Cloudy
6:53 PM 79.0 °F 44.1 °F 29% 29.84 in 10.0 mi WNW 4.6 mph - N/A   Clear
7:53 PM 78.1 °F 46.0 °F 32% 29.82 in 10.0 mi WNW 3.5 mph - N/A   Clear
8:53 PM 72.0 °F 51.1 °F 48% 29.83 in 10.0 mi WNW 5.8 mph - N/A   Scattered Clouds
9:51 PM 69.8 °F 46.4 °F 43% 29.87 in 10.0 mi WNW 8.1 mph - N/A Thunderstorm Scattered Clouds
9:53 PM 70.0 °F 46.9 °F 44% 29.83 in 10.0 mi WNW 10.4 mph - N/A Thunderstorm Scattered Clouds
10:06 PM 69.8 °F 44.6 °F 40% 29.85 in 10.0 mi NW 12.7 mph 17.3 mph N/A   Scattered Clouds
10:30 PM 69.8 °F 46.4 °F 43% 29.92 in 10.0 mi SW 10.4 mph - N/A Thunderstorm Thunderstorm
10:53 PM 64.0 °F 51.1 °F 63% 29.88 in 9.0 mi WNW 8.1 mph - 0.01 in Rain , Thunderstorm Light Rain
11:04 PM 64.4 °F 51.8 °F 64% 29.89 in 10.0 mi WNW 13.8 mph - 0.00 in   Overcast
11:53 PM 60.1 °F 53.1 °F 78% 29.86 in 10.0 mi NW 5.8 mph - 0.02 in Rain Light Rain